START_TIME,STEP,MOV.,A46,t_acc.,A13,t_acc.,M47,t_acc.,A17,t_acc.,A28,t_acc.,M38,t_acc.
1979-07-15 09:00:25.730 ,0,0,,0,3.,4.8,0.,4.8,,0,0.,4.8,0.,4.8
1979-07-15 09:00:30.530 ,0,0,,0,1.,4.8,1.,4.8,,0,0.,4.8,1.,4.8
1979-07-15 09:00:35.330 ,0,0,,0,1.,4.8,0.,4.8,,0,0.,4.8,2.,4.8
1979-07-15 09:00:40.130 ,0,0,,0,0.,4.8,0.,4.8,,0,0.,4.8,2.,4.8
1979-07-15 09:00:44.930 ,0,0,,0,1.,4.8,0.,4.8,,0,0.,4.8,0.,4.8
1979-07-15 09:00:49.730 ,0,0,,0,0.,4.8,0.,4.8,,0,0.,4.8,1.,4.8
1979-07-15 09:00:54.530 ,0,0,,0,0.,4.8,0.,4.8,,0,0.,4.8,0.,4.8
1979-07-15 09:00:59.330 ,0,0,,0,0.,4.8,0.,4.8,,0,0.,4.8,0.,4.8
1979-07-15 09:01:04.130 ,0,0,,0,3.,4.8,0.,4.8,,0,0.,4.8,0.,4.8
1979-07-15 09:01:08.930 ,0,0,,0,3.,4.8,0.,4.8,,0,0.,4.8,3.,4.8
1979-07-15 09:01:13.730 ,0,0,,0,2.,4.8,1.,4.8,,0,0.,4.8,0.,4.8
1979-07-15 09:01:18.530 ,0,0,,0,2.,4.8,0.,4.8,,0,0.,4.8,0.,4.8
1979-07-15 09:01:23.330 ,0,0,,0,1.,4.8,0.,4.8,,0,0.,4.8,1.,4.8
1979-07-15 09:01:28.130 ,0,0,,0,0.,4.8,0.,4.8,,0,0.,4.8,0.,4.8
1979-07-15 09:01:32.930 ,0,0,,0,0.,4.8,0.,4.8,,0,0.,4.8,0.,4.8
1979-07-15 09:01:37.730 ,1,0,,0,0.,4.8,0.,4.8,,0,0.,4.8,1.,4.8
1979-07-15 09:01:42.530 ,1,0,,0,0.,4.8,0.,4.8,,0,0.,4.8,3.,4.8
1979-07-15 09:01:47.330 ,1,0,,0,0.,4.8,0.,4.8,,0,0.,4.8,5.,4.8
1979-07-15 09:01:52.130 ,1,0,,0,7.,4.8,0.,4.8,,0,0.,4.8,3.,4.8
1979-07-15 09:01:56.930 ,1,0,,0,2.,4.8,0.,4.8,,0,0.,4.8,2.,4.8
1979-07-15 09:02:01.730 ,1,0,,0,4.,4.8,0.,4.8,,0,0.,4.8,3.,4.8
1979-07-15 09:02:06.530 ,1,0,,0,4.,4.8,0.,4.8,,0,0.,4.8,2.,4.8
1979-07-15 09:02:11.330 ,1,0,,0,2.,4.8,0.,4.8,,0,0.,4.8,2.,4.8
1979-07-15 09:02:16.130 ,1,0,,0,0.,4.8,0.,4.8,,0,0.,4.8,4.,4.8
1979-07-15 09:02:20.930 ,1,0,,0,0.,4.8,0.,4.8,,0,0.,4.8,3.,4.8
1979-07-15 09:02:25.730 ,2,0,,0,0.,4.8,0.,4.8,,0,0.,4.8,2.,4.8
1979-07-15 09:02:30.530 ,2,0,,0,0.,4.8,0.,4.8,,0,0.,4.8,2.,4.8
1979-07-15 09:02:35.330 ,2,0,,0,0.,4.8,0.,4.8,,0,0.,4.8,0.,4.8
1979-07-15 09:02:40.130 ,2,0,,0,4.,4.8,1.,4.8,,0,0.,4.8,5.,4.8
1979-07-15 09:02:44.930 ,2,0,,0,14.,4.8,0.,4.8,,0,0.,4.8,3.,4.8
1979-07-15 09:02:49.730 ,2,0,,0,8.,4.8,3.,4.8,,0,0.,4.8,3.,4.8
1979-07-15 09:02:54.530 ,2,0,,0,4.,4.8,0.,4.8,,0,0.,4.8,2.,4.8
1979-07-15 09:02:59.330 ,2,0,,0,3.,4.8,0.,4.8,,0,0.,4.8,5.,4.8
1979-07-15 09:03:04.130 ,2,0,,0,0.,4.8,0.,4.8,,0,0.,4.8,3.,4.8
1979-07-15 09:03:08.930 ,2,0,,0,0.,4.8,0.,4.8,,0,0.,4.8,3.,4.8
1979-07-15 09:03:13.730 ,3,0,,0,0.,4.8,0.,4.8,,0,0.,4.8,2.,4.8
1979-07-15 09:03:18.530 ,3,0,,0,0.,4.8,0.,4.8,,0,0.,4.8,5.,4.8
1979-07-15 09:03:23.330 ,3,0,,0,4.,4.8,0.,4.8,,0,0.,4.8,2.,4.8
1979-07-15 09:03:28.130 ,3,0,,0,8.,4.8,1.,4.8,,0,0.,4.8,8.,4.8
1979-07-15 09:03:32.930 ,3,0,,0,11.,4.8,1.,4.8,,0,0.,4.8,2.,4.8
1979-07-15 09:03:37.730 ,3,0,,0,5.,4.8,1.,4.8,,0,0.,4.8,7.,4.8
1979-07-15 09:03:42.530 ,3,0,,0,12.,4.8,1.,4.8,,0,0.,4.8,5.,4.8
1979-07-15 09:03:47.330 ,3,0,,0,7.,4.8,1.,4.8,,0,0.,4.8,4.,4.8
1979-07-15 09:03:52.130 ,3,0,,0,0.,4.8,0.,4.8,,0,0.,4.8,6.,4.8
1979-07-15 09:03:56.930 ,3,0,,0,0.,4.8,0.,4.8,,0,0.,4.8,11.,4.8
1979-07-15 09:04:01.730 ,4,0,,0,0.,4.8,0.,4.8,,0,0.,4.8,7.,4.8
1979-07-15 09:04:06.530 ,4,0,,0,0.,4.8,0.,4.8,,0,0.,4.8,8.,4.8
1979-07-15 09:04:11.330 ,4,0,,0,1.,4.8,0.,4.8,,0,0.,4.8,7.,4.8
1979-07-15 09:04:16.130 ,4,0,,0,20.,4.8,1.,4.8,,0,0.,4.8,13.,4.8
1979-07-15 09:04:20.930 ,4,0,,0,22.,4.8,3.,4.8,,0,0.,4.8,13.,4.8
1979-07-15 09:04:25.730 ,4,0,,0,14.,4.8,0.,4.8,,0,0.,4.8,7.,4.8
1979-07-15 09:04:30.530 ,4,0,,0,15.,4.8,3.,4.8,,0,0.,4.8,17.,4.8
1979-07-15 09:04:35.330 ,4,0,,0,20.,4.8,1.,4.8,,0,0.,4.8,13.,4.8
1979-07-15 09:04:40.130 ,4,0,,0,0.,4.8,0.,4.8,,0,0.,4.8,6.,4.8
1979-07-15 09:04:44.930 ,4,0,,0,0.,4.8,0.,4.8,,0,0.,4.8,16.,4.8
1979-07-15 09:04:49.730 ,5,0,,0,0.,4.8,0.,4.8,,0,0.,4.8,10.,4.8
1979-07-15 09:04:54.530 ,5,0,,0,0.,4.8,0.,4.8,,0,0.,4.8,21.,4.8
1979-07-15 09:04:59.330 ,5,0,,0,13.,4.8,2.,4.8,,0,0.,4.8,72.,4.8
1979-07-15 09:05:04.130 ,5,0,,0,106.,4.8,12.,4.8,,0,0.,4.8,70.,4.8
1979-07-15 09:05:08.930 ,5,0,,0,90.,4.8,7.,4.8,,0,0.,4.8,72.,4.8
1979-07-15 09:05:13.730 ,5,0,,0,96.,4.8,9.,4.8,,0,0.,4.8,72.,4.8
1979-07-15 09:05:18.530 ,5,0,,0,88.,4.8,6.,4.8,,0,0.,4.8,78.,4.8
1979-07-15 09:05:23.330 ,5,0,,0,76.,4.8,10.,4.8,,0,0.,4.8,63.,4.8
1979-07-15 09:05:28.130 ,5,0,,0,0.,4.8,0.,4.8,,0,0.,4.8,70.,4.8
1979-07-15 09:05:32.930 ,5,0,,0,0.,4.8,0.,4.8,,0,0.,4.8,61.,4.8
1979-07-15 09:05:37.730 ,6,0,,0,0.,4.8,0.,4.8,,0,0.,4.8,66.,4.8
1979-07-15 09:05:42.530 ,6,0,,0,0.,4.8,0.,4.8,,0,0.,4.8,64.,4.8
1979-07-15 09:05:47.330 ,6,0,,0,6.,4.8,0.,4.8,,0,0.,4.8,41.,4.8
1979-07-15 09:05:52.130 ,6,0,,0,70.,4.8,8.,4.8,,0,0.,4.8,43.,4.8
1979-07-15 09:05:56.930 ,6,0,,0,64.,4.8,3.,4.8,,0,0.,4.8,31.,4.8
1979-07-15 09:06:01.730 ,6,0,,0,70.,4.8,6.,4.8,,0,0.,4.8,47.,4.8
1979-07-15 09:06:06.530 ,6,0,,0,70.,4.8,5.,4.8,,0,0.,4.8,37.,4.8
1979-07-15 09:06:11.330 ,6,0,,0,49.,4.8,4.,4.8,,0,0.,4.8,33.,4.8
1979-07-15 09:06:16.130 ,6,0,,0,0.,4.8,0.,4.8,,0,0.,4.8,42.,4.8
1979-07-15 09:06:20.930 ,6,0,,0,0.,4.8,0.,4.8,,0,0.,4.8,48.,4.8
1979-07-15 09:06:25.730 ,7,0,,0,0.,4.8,0.,4.8,,0,0.,4.8,34.,4.8
1979-07-15 09:06:30.530 ,7,0,,0,0.,4.8,0.,4.8,,0,0.,4.8,16.,4.8
1979-07-15 09:06:35.330 ,7,0,,0,3.,4.8,0.,4.8,,0,0.,4.8,0.,4.8
1979-07-15 09:06:40.130 ,7,0,,0,10.,4.8,0.,4.8,,0,0.,4.8,0.,4.8
1979-07-15 09:06:44.930 ,7,0,,0,11.,4.8,0.,4.8,,0,0.,4.8,0.,4.8
1979-07-15 09:06:49.730 ,7,0,,0,4.,4.8,0.,4.8,,0,0.,4.8,0.,4.8
1979-07-15 09:06:54.530 ,7,0,,0,6.,4.8,0.,4.8,,0,0.,4.8,0.,4.8
1979-07-15 09:06:59.330 ,7,0,,0,6.,4.8,0.,4.8,,0,0.,4.8,0.,4.8
1979-07-15 09:07:04.130 ,7,0,,0,0.,4.8,0.,4.8,,0,0.,4.8,0.,4.8
1979-07-15 09:07:08.930 ,7,0,,0,0.,4.8,0.,4.8,,0,0.,4.8,0.,4.8
1979-07-15 09:07:13.730 ,3,1,,0,0.,4.8,0.,4.8,,0,0.,4.8,23.,4.8
1979-07-15 09:07:18.530 ,3,1,,0,0.,4.8,0.,4.8,,0,0.,4.8,40.,4.8
1979-07-15 09:07:23.330 ,3,1,,0,4.,4.8,0.,4.8,,0,0.,4.8,43.,4.8
1979-07-15 09:07:28.130 ,3,1,,0,15.,4.8,1.,4.8,,0,0.,4.8,8.,4.8
1979-07-15 09:07:32.930 ,3,1,,0,7.,4.8,1.,4.8,,0,0.,4.8,5.,4.8
1979-07-15 09:07:37.730 ,0,1,,0,6.,4.8,0.,4.8,,0,0.,4.8,3.,4.8
1979-07-15 09:07:42.530 ,0,1,,0,5.,4.8,0.,4.8,,0,0.,4.8,0.,4.8
1979-07-15 09:07:47.330 ,0,1,,0,6.,4.8,2.,4.8,,0,0.,4.8,2.,4.8
1979-07-15 09:07:52.130 ,0,1,,0,0.,4.8,0.,4.8,,0,0.,4.8,4.,4.8
1979-07-15 09:07:56.930 ,0,1,,0,0.,4.8,0.,4.8,,0,0.,4.8,1.,4.8
1979-07-15 09:08:01.730 ,4,1,,0,0.,4.8,0.,4.8,,0,0.,4.8,4.,4.8
1979-07-15 09:08:06.530 ,4,1,,0,0.,4.8,0.,4.8,,0,0.,4.8,5.,4.8
1979-07-15 09:08:11.330 ,4,1,,0,1.,4.8,0.,4.8,,0,0.,4.8,3.,4.8
1979-07-15 09:08:16.130 ,4,1,,0,8.,4.8,2.,4.8,,0,0.,4.8,3.,4.8
1979-07-15 09:08:20.930 ,4,1,,0,8.,4.8,1.,4.8,,0,0.,4.8,6.,4.8
1979-07-15 09:08:25.730 ,7,1,,0,66.,4.8,9.,4.8,,0,0.,4.8,45.,4.8
1979-07-15 09:08:30.530 ,7,1,,0,96.,4.8,6.,4.8,,0,0.,4.8,48.,4.8
1979-07-15 09:08:35.330 ,7,1,,0,46.,4.8,6.,4.8,,0,0.,4.8,27.,4.8
1979-07-15 09:08:40.130 ,7,1,,0,0.,4.8,0.,4.8,,0,0.,4.8,0.,4.8
1979-07-15 09:08:44.930 ,7,1,,0,0.,4.8,0.,4.8,,0,0.,4.8,0.,4.8
1979-07-15 09:08:49.730 ,3,1,,0,0.,4.8,0.,4.8,,0,0.,4.8,18.,4.8
1979-07-15 09:08:54.530 ,3,1,,0,0.,4.8,0.,4.8,,0,0.,4.8,42.,4.8
1979-07-15 09:08:59.330 ,3,1,,0,8.,4.8,0.,4.8,,0,0.,4.8,40.,4.8
1979-07-15 09:09:04.130 ,3,1,,0,7.,4.8,1.,4.8,,0,0.,4.8,6.,4.8
1979-07-15 09:09:08.930 ,3,1,,0,7.,4.8,2.,4.8,,0,0.,4.8,4.,4.8
1979-07-15 09:09:13.730 ,0,1,,0,5.,4.8,0.,4.8,,0,0.,4.8,4.,4.8
1979-07-15 09:09:18.530 ,0,1,,0,2.,4.8,1.,4.8,,0,0.,4.8,4.,4.8
1979-07-15 09:09:23.330 ,0,1,,0,2.,4.8,0.,4.8,,0,0.,4.8,4.,4.8
1979-07-15 09:09:28.130 ,0,1,,0,0.,4.8,0.,4.8,,0,0.,4.8,2.,4.8
1979-07-15 09:09:32.930 ,0,1,,0,0.,4.8,0.,4.8,,0,0.,4.8,1.,4.8
1979-07-15 09:09:37.730 ,4,1,,0,0.,4.8,0.,4.8,,0,0.,4.8,3.,4.8
1979-07-15 09:09:42.530 ,4,1,,0,0.,4.8,0.,4.8,,0,0.,4.8,5.,4.8
1979-07-15 09:09:47.330 ,4,1,,0,0.,4.8,0.,4.8,,0,0.,4.8,2.,4.8
1979-07-15 09:09:52.130 ,4,1,,0,11.,4.8,0.,4.8,,0,0.,4.8,3.,4.8
1979-07-15 09:09:56.930 ,4,1,,0,17.,4.8,2.,4.8,,0,0.,4.8,3.,4.8
1979-07-15 09:10:01.730 ,7,1,,0,47.,4.8,1.,4.8,,0,0.,4.8,23.,4.8
1979-07-15 09:10:06.530 ,7,1,,0,78.,4.8,7.,4.8,,0,0.,4.8,41.,4.8
1979-07-15 09:10:11.330 ,7,1,,0,40.,4.8,1.,4.8,,0,0.,4.8,45.,4.8
1979-07-15 09:10:16.130 ,7,1,,0,0.,4.8,0.,4.8,,0,0.,4.8,0.,4.8
1979-07-15 09:10:20.930 ,7,1,,0,0.,4.8,0.,4.8,,0,0.,4.8,0.,4.8
1979-07-15 09:10:25.730 ,3,1,,0,0.,4.8,0.,4.8,,0,0.,4.8,21.,4.8
1979-07-15 09:10:30.530 ,3,1,,0,0.,4.8,0.,4.8,,0,0.,4.8,39.,4.8
1979-07-15 09:10:35.330 ,3,1,,0,4.,4.8,1.,4.8,,0,0.,4.8,35.,4.8
1979-07-15 09:10:40.130 ,3,1,,0,10.,4.8,1.,4.8,,0,0.,4.8,2.,4.8
1979-07-15 09:10:44.930 ,3,1,,0,9.,4.8,2.,4.8,,0,0.,4.8,4.,4.8
1979-07-15 09:10:49.730 ,0,1,,0,4.,4.8,0.,4.8,,0,0.,4.8,0.,4.8
1979-07-15 09:10:54.530 ,0,1,,0,6.,4.8,0.,4.8,,0,0.,4.8,4.,4.8
1979-07-15 09:10:59.330 ,0,1,,0,1.,4.8,0.,4.8,,0,0.,4.8,0.,4.8
1979-07-15 09:11:04.130 ,0,1,,0,0.,4.8,0.,4.8,,0,0.,4.8,2.,4.8
1979-07-15 09:11:08.930 ,0,1,,0,0.,4.8,0.,4.8,,0,0.,4.8,0.,4.8
1979-07-15 09:11:13.730 ,4,1,,0,0.,4.8,0.,4.8,,0,0.,4.8,1.,4.8
1979-07-15 09:11:18.530 ,4,1,,0,0.,4.8,0.,4.8,,0,0.,4.8,1.,4.8
1979-07-15 09:11:23.330 ,4,1,,0,3.,4.8,0.,4.8,,0,0.,4.8,4.,4.8
1979-07-15 09:11:28.130 ,4,1,,0,9.,4.8,0.,4.8,,0,0.,4.8,2.,4.8
1979-07-15 09:11:32.930 ,4,1,,0,9.,4.8,0.,4.8,,0,0.,4.8,2.,4.8
1979-07-15 09:11:37.730 ,7,1,,0,40.,4.8,2.,4.8,,0,0.,4.8,25.,4.8
1979-07-15 09:11:42.530 ,7,1,,0,57.,4.8,4.,4.8,,0,0.,4.8,45.,4.8
1979-07-15 09:11:47.330 ,7,1,,0,70.,4.8,6.,4.8,,0,0.,4.8,30.,4.8
1979-07-15 09:11:52.130 ,7,1,,0,0.,4.8,0.,4.8,,0,0.,4.8,0.,4.8
1979-07-15 09:11:56.930 ,7,1,,0,0.,4.8,0.,4.8,,0,0.,4.8,0.,4.8
1979-07-15 09:12:01.730 ,3,1,,0,0.,4.8,0.,4.8,,0,0.,4.8,29.,4.8
1979-07-15 09:12:06.530 ,3,1,,0,0.,4.8,0.,4.8,,0,0.,4.8,44.,4.8
1979-07-15 09:12:11.330 ,3,1,,0,4.,4.8,0.,4.8,,0,0.,4.8,29.,4.8
1979-07-15 09:12:16.130 ,3,1,,0,9.,4.8,1.,4.8,,0,0.,4.8,8.,4.8
1979-07-15 09:12:20.930 ,3,1,,0,11.,4.8,1.,4.8,,0,0.,4.8,2.,4.8
1979-07-15 09:12:25.730 ,0,1,,0,6.,4.8,1.,4.8,,0,0.,4.8,1.,4.8
1979-07-15 09:12:30.530 ,0,1,,0,4.,4.8,0.,4.8,,0,0.,4.8,2.,4.8
1979-07-15 09:12:35.330 ,0,1,,0,2.,4.8,2.,4.8,,0,0.,4.8,2.,4.8
1979-07-15 09:12:40.130 ,0,1,,0,0.,4.8,0.,4.8,,0,0.,4.8,1.,4.8
1979-07-15 09:12:44.930 ,0,1,,0,0.,4.8,0.,4.8,,0,0.,4.8,2.,4.8
1979-07-15 09:12:49.730 ,4,1,,0,0.,4.8,0.,4.8,,0,0.,4.8,3.,4.8
1979-07-15 09:12:54.530 ,4,1,,0,0.,4.8,0.,4.8,,0,0.,4.8,0.,4.8
1979-07-15 09:12:59.330 ,4,1,,0,1.,4.8,0.,4.8,,0,0.,4.8,0.,4.8
1979-07-15 09:13:04.130 ,4,1,,0,6.,4.8,1.,4.8,,0,0.,4.8,5.,4.8
1979-07-15 09:13:08.930 ,4,1,,0,8.,4.8,1.,4.8,,0,0.,4.8,4.,4.8
1979-07-15 09:13:13.730 ,7,1,,0,43.,4.8,2.,4.8,,0,0.,4.8,18.,4.8
1979-07-15 09:13:18.530 ,7,1,,0,82.,4.8,4.,4.8,,0,0.,4.8,36.,4.8
1979-07-15 09:13:23.330 ,7,1,,0,52.,4.8,5.,4.8,,0,0.,4.8,34.,4.8
1979-07-15 09:13:28.130 ,7,1,,0,0.,4.8,0.,4.8,,0,0.,4.8,0.,4.8
1979-07-15 09:13:32.930 ,7,1,,0,0.,4.8,0.,4.8,,0,0.,4.8,0.,4.8
1979-07-15 09:13:37.730 ,3,1,,0,0.,4.8,0.,4.8,,0,0.,4.8,18.,4.8
1979-07-15 09:13:42.530 ,3,1,,0,0.,4.8,0.,4.8,,0,0.,4.8,37.,4.8
1979-07-15 09:13:47.330 ,3,1,,0,9.,4.8,2.,4.8,,0,0.,4.8,31.,4.8
1979-07-15 09:13:52.130 ,3,1,,0,12.,4.8,0.,4.8,,0,0.,4.8,2.,4.8
1979-07-15 09:13:56.930 ,3,1,,0,13.,4.8,1.,4.8,,0,0.,4.8,6.,4.8
1979-07-15 09:14:01.730 ,0,1,,0,10.,4.8,2.,4.8,,0,0.,4.8,4.,4.8
1979-07-15 09:14:06.530 ,0,1,,0,5.,4.8,0.,4.8,,0,0.,4.8,1.,4.8
1979-07-15 09:14:11.330 ,0,1,,0,2.,4.8,0.,4.8,,0,0.,4.8,1.,4.8
1979-07-15 09:14:16.130 ,0,1,,0,0.,4.8,0.,4.8,,0,0.,4.8,1.,4.8
1979-07-15 09:14:20.930 ,0,1,,0,0.,4.8,0.,4.8,,0,0.,4.8,3.,4.8
1979-07-15 09:14:25.730 ,4,1,,0,0.,4.8,0.,4.8,,0,0.,4.8,2.,4.8
1979-07-15 09:14:30.530 ,4,1,,0,0.,4.8,0.,4.8,,0,0.,4.8,1.,4.8
1979-07-15 09:14:35.330 ,4,1,,0,2.,4.8,0.,4.8,,0,0.,4.8,5.,4.8
1979-07-15 09:14:40.130 ,4,1,,0,11.,4.8,2.,4.8,,0,0.,4.8,0.,4.8
1979-07-15 09:14:44.930 ,4,1,,0,12.,4.8,2.,4.8,,0,0.,4.8,7.,4.8
1979-07-15 09:14:49.730 ,7,1,,0,68.,4.8,4.,4.8,,0,0.,4.8,32.,4.8
1979-07-15 09:14:54.530 ,7,1,,0,98.,4.8,7.,4.8,,0,0.,4.8,56.,4.8
1979-07-15 09:14:59.330 ,7,1,,0,57.,4.8,11.,4.8,,0,0.,4.8,31.,4.8
1979-07-15 09:15:04.130 ,7,1,,0,0.,4.8,0.,4.8,,0,0.,4.8,0.,4.8
1979-07-15 09:15:08.930 ,7,1,,0,0.,4.8,0.,4.8,,0,0.,4.8,1.,4.8
1979-07-15 09:15:13.730 ,3,1,,0,0.,4.8,0.,4.8,,0,0.,4.8,25.,4.8
1979-07-15 09:15:18.530 ,3,1,,0,0.,4.8,0.,4.8,,0,0.,4.8,48.,4.8
1979-07-15 09:15:23.330 ,3,1,,0,9.,4.8,0.,4.8,,0,0.,4.8,49.,4.8
1979-07-15 09:15:28.130 ,3,1,,0,10.,4.8,0.,4.8,,0,0.,4.8,6.,4.8
1979-07-15 09:15:32.930 ,3,1,,0,6.,4.8,0.,4.8,,0,0.,4.8,3.,4.8
1979-07-15 09:15:37.730 ,0,1,,0,3.,4.8,0.,4.8,,0,0.,4.8,1.,4.8
1979-07-15 09:15:42.530 ,0,1,,0,3.,4.8,0.,4.8,,0,0.,4.8,2.,4.8
1979-07-15 09:15:47.330 ,0,1,,0,5.,4.8,0.,4.8,,0,0.,4.8,0.,4.8
1979-07-15 09:15:52.130 ,0,1,,0,0.,4.8,0.,4.8,,0,0.,4.8,0.,4.8
1979-07-15 09:15:56.930 ,0,1,,0,0.,4.8,0.,4.8,,0,0.,4.8,2.,4.8
1979-07-15 09:16:01.730 ,4,1,,0,0.,4.8,0.,4.8,,0,0.,4.8,2.,4.8
1979-07-15 09:16:06.530 ,4,1,,0,0.,4.8,0.,4.8,,0,0.,4.8,0.,4.8
1979-07-15 09:16:11.330 ,4,1,,0,1.,4.8,0.,4.8,,0,0.,4.8,2.,4.8
1979-07-15 09:16:16.130 ,4,1,,0,9.,4.8,2.,4.8,,0,0.,4.8,2.,4.8
1979-07-15 09:16:20.930 ,4,1,,0,12.,4.8,0.,4.8,,0,0.,4.8,6.,4.8
1979-07-15 09:16:25.730 ,7,1,,0,72.,4.8,7.,4.8,,0,0.,4.8,42.,4.8
1979-07-15 09:16:30.530 ,7,1,,0,102.,4.8,7.,4.8,,0,0.,4.8,59.,4.8
1979-07-15 09:16:35.330 ,7,1,,0,37.,4.8,1.,4.8,,0,0.,4.8,24.,4.8
1979-07-15 09:16:40.130 ,7,1,,0,0.,4.8,0.,4.8,,0,0.,4.8,0.,4.8
1979-07-15 09:16:44.930 ,7,1,,0,0.,4.8,0.,4.8,,0,0.,4.8,0.,4.8
1979-07-15 09:16:49.730 ,3,1,,0,0.,4.8,0.,4.8,,0,0.,4.8,18.,4.8
1979-07-15 09:16:54.530 ,3,1,,0,0.,4.8,0.,4.8,,0,0.,4.8,50.,4.8
1979-07-15 09:16:59.330 ,3,1,,0,10.,4.8,1.,4.8,,0,0.,4.8,74.,4.8
1979-07-15 09:17:04.130 ,3,1,,0,13.,4.8,0.,4.8,,0,0.,4.8,4.,4.8
1979-07-15 09:17:08.930 ,3,1,,0,10.,4.8,0.,4.8,,0,0.,4.8,2.,4.8
1979-07-15 09:17:13.730 ,0,1,,0,2.,4.8,0.,4.8,,0,0.,4.8,3.,4.8
1979-07-15 09:17:18.530 ,0,1,,0,3.,4.8,0.,4.8,,0,0.,4.8,2.,4.8
1979-07-15 09:17:23.330 ,0,1,,0,3.,4.8,0.,4.8,,0,0.,4.8,0.,4.8
1979-07-15 09:17:28.130 ,0,1,,0,0.,4.8,0.,4.8,,0,0.,4.8,2.,4.8
1979-07-15 09:17:32.930 ,0,1,,0,0.,4.8,0.,4.8,,0,0.,4.8,0.,4.8
1979-07-15 09:17:37.730 ,0,0,,0,0.,4.8,0.,4.8,,0,0.,4.8,0.,4.8
1979-07-15 09:17:42.530 ,0,0,,0,0.,4.8,0.,4.8,,0,0.,4.8,2.,4.8
1979-07-15 09:17:47.330 ,0,0,,0,1.,4.8,0.,4.8,,0,0.,4.8,3.,4.8
1979-07-15 09:17:52.130 ,0,0,,0,7.,4.8,0.,4.8,,0,0.,4.8,2.,4.8
1979-07-15 09:17:56.930 ,0,0,,0,15.,4.8,1.,4.8,,0,0.,4.8,7.,4.8
1979-07-15 09:18:01.730 ,0,0,,0,72.,4.8,7.,4.8,,0,0.,4.8,39.,4.8
1979-07-15 09:18:06.530 ,0,0,,0,88.,4.8,10.,4.8,,0,0.,4.8,54.,4.8
1979-07-15 09:18:11.330 ,0,0,,0,46.,4.8,5.,4.8,,0,0.,4.8,29.,4.8
1979-07-15 09:18:16.130 ,0,0,,0,0.,4.8,0.,4.8,,0,0.,4.8,0.,4.8
1979-07-15 09:18:20.930 ,0,0,,0,0.,4.8,0.,4.8,,0,0.,4.8,0.,4.8
1979-07-15 09:18:25.730 ,5,0,,0,0.,4.8,0.,4.8,,0,0.,4.8,23.,4.8
1979-07-15 09:18:30.530 ,5,0,,0,0.,4.8,0.,4.8,,0,0.,4.8,56.,4.8
1979-07-15 09:18:35.330 ,5,0,,0,13.,4.8,0.,4.8,,0,0.,4.8,70.,4.8
1979-07-15 09:18:40.130 ,5,0,,0,96.,4.8,6.,4.8,,0,0.,4.8,59.,4.8
1979-07-15 09:18:44.930 ,5,0,,0,88.,4.8,10.,4.8,,0,0.,4.8,61.,4.8
1979-07-15 09:18:49.730 ,5,0,,0,110.,4.8,6.,4.8,,0,0.,4.8,64.,4.8
1979-07-15 09:18:54.530 ,5,0,,0,102.,4.8,9.,4.8,,0,0.,4.8,43.,4.8
1979-07-15 09:18:59.330 ,5,0,,0,84.,4.8,6.,4.8,,0,0.,4.8,66.,4.8
1979-07-15 09:19:04.130 ,5,0,,0,0.,4.8,0.,4.8,,0,0.,4.8,42.,4.8
1979-07-15 09:19:08.930 ,5,0,,0,0.,4.8,0.,4.8,,0,0.,4.8,60.,4.8
1979-07-15 09:19:13.730 ,4,0,,0,0.,4.8,0.,4.8,,0,0.,4.8,74.,4.8
1979-07-15 09:19:18.530 ,4,0,,0,0.,4.8,0.,4.8,,0,0.,4.8,39.,4.8
1979-07-15 09:19:23.330 ,4,0,,0,3.,4.8,0.,4.8,,0,0.,4.8,10.,4.8
1979-07-15 09:19:28.130 ,4,0,,0,18.,4.8,0.,4.8,,0,0.,4.8,13.,4.8
1979-07-15 09:19:32.930 ,4,0,,0,20.,4.8,1.,4.8,,0,0.,4.8,6.,4.8
1979-07-15 09:19:37.730 ,4,0,,0,18.,4.8,0.,4.8,,0,0.,4.8,8.,4.8
1979-07-15 09:19:42.530 ,4,0,,0,9.,4.8,0.,4.8,,0,0.,4.8,7.,4.8
1979-07-15 09:19:47.330 ,4,0,,0,14.,4.8,0.,4.8,,0,0.,4.8,7.,4.8
1979-07-15 09:19:52.130 ,4,0,,0,0.,4.8,0.,4.8,,0,0.,4.8,5.,4.8
1979-07-15 09:19:56.930 ,4,0,,0,0.,4.8,0.,4.8,,0,0.,4.8,6.,4.8
1979-07-15 09:20:01.730 ,3,0,,0,0.,4.8,0.,4.8,,0,0.,4.8,8.,4.8
1979-07-15 09:20:06.530 ,3,0,,0,0.,4.8,0.,4.8,,0,0.,4.8,6.,4.8
1979-07-15 09:20:11.330 ,3,0,,0,2.,4.8,0.,4.8,,0,0.,4.8,6.,4.8
1979-07-15 09:20:16.130 ,3,0,,0,11.,4.8,0.,4.8,,0,0.,4.8,14.,4.8
1979-07-15 09:20:20.930 ,3,0,,0,13.,4.8,1.,4.8,,0,0.,4.8,5.,4.8
1979-07-15 09:20:25.730 ,3,0,,0,13.,4.8,1.,4.8,,0,0.,4.8,4.,4.8
1979-07-15 09:20:30.530 ,3,0,,0,11.,4.8,2.,4.8,,0,0.,4.8,4.,4.8
1979-07-15 09:20:35.330 ,3,0,,0,9.,4.8,0.,4.8,,0,0.,4.8,17.,4.8
1979-07-15 09:20:40.130 ,3,0,,0,0.,4.8,0.,4.8,,0,0.,4.8,4.,4.8
1979-07-15 09:20:44.930 ,3,0,,0,0.,4.8,0.,4.8,,0,0.,4.8,11.,4.8
1979-07-15 09:20:49.730 ,2,0,,0,0.,4.8,0.,4.8,,0,0.,4.8,8.,4.8
1979-07-15 09:20:54.530 ,2,0,,0,0.,4.8,0.,4.8,,0,0.,4.8,9.,4.8
1979-07-15 09:20:59.330 ,2,0,,0,1.,4.8,0.,4.8,,0,0.,4.8,9.,4.8
1979-07-15 09:21:04.130 ,2,0,,0,11.,4.8,1.,4.8,,0,0.,4.8,6.,4.8
1979-07-15 09:21:08.930 ,2,0,,0,12.,4.8,0.,4.8,,0,0.,4.8,7.,4.8
1979-07-15 09:21:13.730 ,2,0,,0,18.,4.8,1.,4.8,,0,0.,4.8,7.,4.8
1979-07-15 09:21:18.530 ,2,0,,0,9.,4.8,1.,4.8,,0,0.,4.8,6.,4.8
1979-07-15 09:21:23.330 ,2,0,,0,10.,4.8,0.,4.8,,0,0.,4.8,9.,4.8
1979-07-15 09:21:28.130 ,2,0,,0,0.,4.8,0.,4.8,,0,0.,4.8,4.,4.8
1979-07-15 09:21:32.930 ,2,0,,0,0.,4.8,0.,4.8,,0,0.,4.8,10.,4.8
1979-07-15 09:21:37.730 ,1,0,,0,0.,4.8,0.,4.8,,0,0.,4.8,12.,4.8
1979-07-15 09:21:42.530 ,1,0,,0,0.,4.8,0.,4.8,,0,0.,4.8,5.,4.8
1979-07-15 09:21:47.330 ,1,0,,0,0.,4.8,0.,4.8,,0,0.,4.8,2.,4.8
1979-07-15 09:21:52.130 ,1,0,,0,4.,4.8,0.,4.8,,0,0.,4.8,2.,4.8
1979-07-15 09:21:56.930 ,1,0,,0,4.,4.8,0.,4.8,,0,0.,4.8,1.,4.8
1979-07-15 09:22:01.730 ,1,0,,0,3.,4.8,1.,4.8,,0,0.,4.8,4.,4.8
1979-07-15 09:22:06.530 ,1,0,,0,3.,4.8,0.,4.8,,0,0.,4.8,4.,4.8
1979-07-15 09:22:11.330 ,1,0,,0,3.,4.8,0.,4.8,,0,0.,4.8,3.,4.8
1979-07-15 09:22:16.130 ,1,0,,0,0.,4.8,0.,4.8,,0,0.,4.8,1.,4.8
1979-07-15 09:22:20.930 ,1,0,,0,0.,4.8,0.,4.8,,0,0.,4.8,5.,4.8
1979-07-15 09:22:25.730 ,0,0,,0,0.,4.8,0.,4.8,,0,0.,4.8,0.,4.8
1979-07-15 09:22:30.530 ,0,0,,0,0.,4.8,0.,4.8,,0,0.,4.8,1.,4.8
1979-07-15 09:22:35.330 ,0,0,,0,0.,4.8,0.,4.8,,0,0.,4.8,1.,4.8
1979-07-15 09:22:40.130 ,0,0,,0,3.,4.8,0.,4.8,,0,0.,4.8,1.,4.8
1979-07-15 09:22:44.930 ,0,0,,0,1.,4.8,0.,4.8,,0,0.,4.8,0.,4.8
1979-07-15 09:22:49.730 ,0,0,,0,3.,4.8,1.,4.8,,0,0.,4.8,2.,4.8
1979-07-15 09:22:54.530 ,0,0,,0,4.,4.8,0.,4.8,,0,0.,4.8,1.,4.8
1979-07-15 09:22:59.330 ,0,0,,0,4.,4.8,0.,4.8,,0,0.,4.8,1.,4.8
1979-07-15 09:23:04.130 ,0,0,,0,0.,4.8,0.,4.8,,0,0.,4.8,1.,4.8
1979-07-15 09:23:08.930 ,0,0,,0,0.,4.8,0.,4.8,,0,0.,4.8,0.,4.8
1979-07-15 09:23:13.730 ,0,0,,0,0.,4.8,0.,4.8,,0,0.,4.8,3.,4.8
1979-07-15 09:23:18.530 ,0,0,,0,0.,4.8,0.,4.8,,0,0.,4.8,2.,4.8
1979-07-15 09:23:23.330 ,0,0,,0,2.,4.8,1.,4.8,,0,0.,4.8,1.,4.8
1979-07-15 09:23:28.130 ,0,0,,0,7.,4.8,0.,4.8,,0,0.,4.8,4.,4.8
1979-07-15 09:23:32.930 ,0,0,,0,4.,4.8,0.,4.8,,0,0.,4.8,2.,4.8
1979-07-15 09:23:37.730 ,0,0,,0,2.,4.8,0.,4.8,,0,0.,4.8,1.,4.8
1979-07-15 09:23:42.530 ,0,0,,0,7.,4.8,1.,4.8,,0,0.,4.8,1.,4.8
1979-07-15 09:23:47.330 ,0,0,,0,7.,4.8,0.,4.8,,0,0.,4.8,2.,4.8
1979-07-15 09:23:52.130 ,0,0,,0,0.,4.8,0.,4.8,,0,0.,4.8,2.,4.8
1979-07-15 09:23:56.930 ,0,0,,0,0.,4.8,0.,4.8,,0,0.,4.8,2.,4.8
1979-07-15 09:24:01.730 ,1,0,,0,0.,4.8,0.,4.8,,0,0.,4.8,1.,4.8
1979-07-15 09:24:06.530 ,1,0,,0,0.,4.8,0.,4.8,,0,0.,4.8,4.,4.8
1979-07-15 09:24:11.330 ,1,0,,0,0.,4.8,0.,4.8,,0,0.,4.8,2.,4.8
1979-07-15 09:24:16.130 ,1,0,,0,5.,4.8,1.,4.8,,0,0.,4.8,4.,4.8
1979-07-15 09:24:20.930 ,1,0,,0,7.,4.8,0.,4.8,,0,0.,4.8,2.,4.8
1979-07-15 09:24:25.730 ,1,0,,0,2.,4.8,0.,4.8,,0,0.,4.8,5.,4.8
1979-07-15 09:24:30.530 ,1,0,,0,4.,4.8,0.,4.8,,0,0.,4.8,4.,4.8
1979-07-15 09:24:35.330 ,1,0,,0,8.,4.8,1.,4.8,,0,0.,4.8,4.,4.8
1979-07-15 09:24:40.130 ,1,0,,0,0.,4.8,0.,4.8,,0,0.,4.8,3.,4.8
1979-07-15 09:24:44.930 ,1,0,,0,0.,4.8,0.,4.8,,0,0.,4.8,3.,4.8
1979-07-15 09:24:49.730 ,2,0,,0,0.,4.8,0.,4.8,,0,0.,4.8,2.,4.8
1979-07-15 09:24:54.530 ,2,0,,0,0.,4.8,0.,4.8,,0,0.,4.8,3.,4.8
1979-07-15 09:24:59.330 ,2,0,,0,0.,4.8,0.,4.8,,0,0.,4.8,6.,4.8
1979-07-15 09:25:04.130 ,2,0,,0,10.,4.8,0.,4.8,,0,0.,4.8,1.,4.8
1979-07-15 09:25:08.930 ,2,0,,0,4.,4.8,0.,4.8,,0,0.,4.8,3.,4.8
1979-07-15 09:25:13.730 ,2,0,,0,11.,4.8,1.,4.8,,0,0.,4.8,3.,4.8
1979-07-15 09:25:18.530 ,2,0,,0,10.,4.8,0.,4.8,,0,0.,4.8,5.,4.8
1979-07-15 09:25:23.330 ,2,0,,0,3.,4.8,0.,4.8,,0,0.,4.8,3.,4.8
1979-07-15 09:25:28.130 ,2,0,,0,0.,4.8,0.,4.8,,0,0.,4.8,2.,4.8
1979-07-15 09:25:32.930 ,2,0,,0,0.,4.8,0.,4.8,,0,0.,4.8,1.,4.8
1979-07-15 09:25:37.730 ,3,0,,0,0.,4.8,0.,4.8,,0,0.,4.8,1.,4.8
1979-07-15 09:25:42.530 ,3,0,,0,0.,4.8,0.,4.8,,0,0.,4.8,2.,4.8
1979-07-15 09:25:47.330 ,3,0,,0,0.,4.8,0.,4.8,,0,0.,4.8,2.,4.8
1979-07-15 09:25:52.130 ,3,0,,0,5.,4.8,1.,4.8,,0,0.,4.8,2.,4.8
1979-07-15 09:25:56.930 ,3,0,,0,6.,4.8,2.,4.8,,0,0.,4.8,1.,4.8
1979-07-15 09:26:01.730 ,3,0,,0,3.,4.8,1.,4.8,,0,0.,4.8,1.,4.8
1979-07-15 09:26:06.530 ,3,0,,0,5.,4.8,0.,4.8,,0,0.,4.8,1.,4.8
1979-07-15 09:26:11.330 ,3,0,,0,5.,4.8,1.,4.8,,0,0.,4.8,2.,4.8
1979-07-15 09:26:16.130 ,3,0,,0,0.,4.8,0.,4.8,,0,0.,4.8,8.,4.8
1979-07-15 09:26:20.930 ,3,0,,0,0.,4.8,0.,4.8,,0,0.,4.8,1.,4.8
1979-07-15 09:26:25.730 ,4,0,,0,0.,4.8,0.,4.8,,0,0.,4.8,2.,4.8
1979-07-15 09:26:30.530 ,4,0,,0,0.,4.8,0.,4.8,,0,0.,4.8,1.,4.8
1979-07-15 09:26:35.330 ,4,0,,0,1.,4.8,0.,4.8,,0,0.,4.8,3.,4.8
1979-07-15 09:26:40.130 ,4,0,,0,10.,4.8,0.,4.8,,0,0.,4.8,8.,4.8
1979-07-15 09:26:44.930 ,4,0,,0,5.,4.8,2.,4.8,,0,0.,4.8,8.,4.8
1979-07-15 09:26:49.730 ,4,0,,0,10.,4.8,1.,4.8,,0,0.,4.8,2.,4.8
1979-07-15 09:26:54.530 ,4,0,,0,11.,4.8,3.,4.8,,0,0.,4.8,3.,4.8
1979-07-15 09:26:59.330 ,4,0,,0,5.,4.8,0.,4.8,,0,0.,4.8,6.,4.8
1979-07-15 09:27:04.130 ,4,0,,0,0.,4.8,0.,4.8,,0,0.,4.8,4.,4.8
1979-07-15 09:27:08.930 ,4,0,,0,0.,4.8,0.,4.8,,0,0.,4.8,6.,4.8
1979-07-15 09:27:13.730 ,5,0,,0,0.,4.8,0.,4.8,,0,0.,4.8,4.,4.8
1979-07-15 09:27:18.530 ,5,0,,0,0.,4.8,0.,4.8,,0,0.,4.8,12.,4.8
1979-07-15 09:27:23.330 ,5,0,,0,3.,4.8,1.,4.8,,0,0.,4.8,19.,4.8
1979-07-15 09:27:28.130 ,5,0,,0,23.,4.8,3.,4.8,,0,0.,4.8,19.,4.8
1979-07-15 09:27:32.930 ,5,0,,0,24.,4.8,6.,4.8,,0,0.,4.8,12.,4.8
1979-07-15 09:27:37.730 ,5,0,,0,25.,4.8,0.,4.8,,0,0.,4.8,12.,4.8
1979-07-15 09:27:42.530 ,5,0,,0,22.,4.8,3.,4.8,,0,0.,4.8,19.,4.8
1979-07-15 09:27:47.330 ,5,0,,0,19.,4.8,1.,4.8,,0,0.,4.8,12.,4.8
1979-07-15 09:27:52.130 ,5,0,,0,0.,4.8,0.,4.8,,0,0.,4.8,7.,4.8
1979-07-15 09:27:56.930 ,5,0,,0,0.,4.8,0.,4.8,,0,0.,4.8,11.,4.8
1979-07-15 09:28:01.730 ,6,0,,0,0.,4.8,0.,4.8,,0,0.,4.8,16.,4.8
1979-07-15 09:28:06.530 ,6,0,,0,0.,4.8,0.,4.8,,0,0.,4.8,13.,4.8
1979-07-15 09:28:11.330 ,6,0,,0,6.,4.8,0.,4.8,,0,0.,4.8,13.,4.8
1979-07-15 09:28:16.130 ,6,0,,0,26.,4.8,4.,4.8,,0,0.,4.8,14.,4.8
1979-07-15 09:28:20.930 ,6,0,,0,14.,4.8,2.,4.8,,0,0.,4.8,8.,4.8
1979-07-15 09:28:25.730 ,6,0,,0,14.,4.8,2.,4.8,,0,0.,4.8,11.,4.8
1979-07-15 09:28:30.530 ,6,0,,0,14.,4.8,1.,4.8,,0,0.,4.8,11.,4.8
1979-07-15 09:28:35.330 ,6,0,,0,12.,4.8,1.,4.8,,0,0.,4.8,5.,4.8
1979-07-15 09:28:40.130 ,6,0,,0,0.,4.8,0.,4.8,,0,0.,4.8,12.,4.8
1979-07-15 09:28:44.930 ,6,0,,0,0.,4.8,0.,4.8,,0,0.,4.8,8.,4.8
1979-07-15 09:28:49.730 ,7,0,,0,0.,4.8,0.,4.8,,0,0.,4.8,6.,4.8
1979-07-15 09:28:54.530 ,7,0,,0,0.,4.8,0.,4.8,,0,0.,4.8,7.,4.8
1979-07-15 09:28:59.330 ,7,0,,0,1.,4.8,0.,4.8,,0,0.,4.8,0.,4.8
1979-07-15 09:29:04.130 ,7,0,,0,8.,4.8,0.,4.8,,0,0.,4.8,0.,4.8
1979-07-15 09:29:08.930 ,7,0,,0,3.,4.8,0.,4.8,,0,0.,4.8,0.,4.8
1979-07-15 09:29:13.730 ,7,0,,0,13.,4.8,0.,4.8,,0,0.,4.8,0.,4.8
1979-07-15 09:29:18.530 ,7,0,,0,8.,4.8,0.,4.8,,0,0.,4.8,0.,4.8
1979-07-15 09:29:23.330 ,7,0,,0,9.,4.8,0.,4.8,,0,0.,4.8,0.,4.8
1979-07-15 09:29:28.130 ,7,0,,0,0.,4.8,0.,4.8,,0,0.,4.8,0.,4.8
1979-07-15 09:29:32.930 ,7,0,,0,0.,4.8,0.,4.8,,0,0.,4.8,0.,4.8
1979-07-15 09:29:37.730 ,7,0,,0,0.,4.8,0.,4.8,,0,0.,4.8,0.,4.8
1979-07-15 09:29:42.530 ,7,0,,0,0.,4.8,0.,4.8,,0,0.,4.8,0.,4.8
1979-07-15 09:29:47.330 ,7,0,,0,3.,4.8,0.,4.8,,0,0.,4.8,0.,4.8
1979-07-15 09:29:52.130 ,7,0,,0,14.,4.8,0.,4.8,,0,0.,4.8,0.,4.8
1979-07-15 09:29:56.930 ,7,0,,0,12.,4.8,0.,4.8,,0,0.,4.8,0.,4.8